Regional Weather Roundup
Issued by NWS

Home | Current Version | Previous Version | Text Only | Print | Product List | Glossary Off
Versions: 1 2 3 4 5 6 7 8 9 10 11 12 13 14 15 16 17 18 19 20 21 22 23 24 25 26 27 28 29 30 31 32 33 34 35 36 37 38 39 40 41 42 43 44 45 46 47 48 49 50

000
ASUS43 KMKX 261211
RWRWI

WISCONSIN REGIONAL WEATHER ROUNDUP
NATIONAL WEATHER SERVICE MILWAUKEE/SULLIVAN WI
600 AM CST WED NOV 26 2014

NOTE: "FAIR" INDICATES FEW OR NO CLOUDS BELOW 12,000 FEET WITH NO
SIGNIFICANT WEATHER AND/OR OBSTRUCTIONS TO VISIBILITY.

WIZ001-002-006>008-014>016-023>028-261300-
NORTHWEST WISCONSIN

CITY           SKY/WX    TMP DP  RH WIND       PRES   REMARKS
SUPERIOR ARPT  MIX PCPN  19  17  92 CALM      30.14R
6HR MIN TEMP:  19; 6HR MAX TEMP:  20;

ASHLAND        LGT SNOW  19  16  88 CALM      30.13S FOG
6HR MIN TEMP:  14; 6HR MAX TEMP:  19; 6HR PCP: TRACE;

HAYWARD        CLOUDY    20  16  84 CALM      30.08S
6HR MIN TEMP:  19; 6HR MAX TEMP:  20;

SIREN          CLOUDY    22  17  82 CALM      30.09S
6HR MIN TEMP:  21; 6HR MAX TEMP:  22;

CUMBERLAND     CLOUDY    21  18  86 E3        30.07R
RICE LAKE      CLOUDY    22  17  83 E3        30.09S
6HR MIN TEMP:  22; 6HR MAX TEMP:  22;

CHETEK         CLOUDY    22  17  84 E5        30.08S WCI  15
6HR MIN TEMP:  21; 6HR MAX TEMP:  22;

LADYSMITH      CLOUDY    21  18  86 E5        30.10S WCI  15
6HR MIN TEMP:  21; 6HR MAX TEMP:  22;

EAU CLAIRE     CLOUDY    21  15  78 E6        30.09R WCI  13
6HR MIN TEMP:  19; 6HR MAX TEMP:  22;

MENOMONIE      CLOUDY    23  17  78 E7        30.09R WCI  14
6HR MIN TEMP:  19; 6HR MAX TEMP:  24;

NEW RICHMOND   MOCLDY    22  15  75 E8        30.07S WCI  13
6HR MIN TEMP:  22; 6HR MAX TEMP:  24;

OSCEOLA        CLOUDY    24  17  73 E5        30.10S WCI  18
6HR MIN TEMP:  24; 6HR MAX TEMP:  25;

$$

WIZ003>005-009-010-017-018-261300-
NORTH CENTRAL WISCONSIN

CITY           SKY/WX    TMP DP  RH WIND       PRES   REMARKS
MANITOWISH WTR CLOUDY    15  13  95 CALM      30.06R
6HR MIN TEMP:   1; 6HR MAX TEMP:  15;

ARBOR VITAE    CLOUDY    17  14  90 CALM      30.06S
6HR MIN TEMP:   9; 6HR MAX TEMP:  17;

WOODRUFF       CLOUDY    17  14  90 CALM      30.06S
6HR MIN TEMP:   9; 6HR MAX TEMP:  17;

RHINELANDER    CLOUDY    12  10  92 CALM      30.07S
6HR MIN TEMP:   5; 6HR MAX TEMP:  13;

EAGLE RIVER    CLOUDY    12   8  85 CALM      30.07R
6HR MIN TEMP:   0; 6HR MAX TEMP:  12;

LAND O LAKES   CLOUDY     9   6  89 CALM      30.07S
6HR MIN TEMP:  -9; 6HR MAX TEMP:   9;

PHILLIPS       CLOUDY    17  14  89 CALM      30.06S
6HR MIN TEMP:  15; 6HR MAX TEMP:  17;

TOMAHAWK       CLOUDY    15  13  92 CALM      30.08R
6HR MIN TEMP:  10; 6HR MAX TEMP:  15;

MEDFORD        CLOUDY    17  14  87 SE3       30.07R
6HR MIN TEMP:  17; 6HR MAX TEMP:  19;

MERRILL        CLOUDY    15  13  92 CALM      30.09R
6HR MIN TEMP:  10; 6HR MAX TEMP:  15;

$$

WIZ029-030-035-036-043>047-261300-
CENTRAL WISCONSIN

CITY           SKY/WX    TMP DP  RH WIND       PRES   REMARKS
WAUSAU         CLOUDY    16  14  92 CALM      30.08S
6HR MIN TEMP:  12; 6HR MAX TEMP:  16;

MOSINEE        NOT AVBL
MARSHFIELD     CLOUDY    17  14  88 E3        30.09R
6HR MIN TEMP:  17; 6HR MAX TEMP:  21;

STEVENS POINT  CLOUDY    12  10  92 E3        30.11R
6HR MIN TEMP:   9; 6HR MAX TEMP:  14;

WAUPACA        PTCLDY    11   8  85 CALM      30.13F
6HR MIN TEMP:   9; 6HR MAX TEMP:  16;

WAUTOMA        CLOUDY     5   2  88 CALM      30.13S
6HR MIN TEMP:   2; 6HR MAX TEMP:   7;

WISC RAPIDS    CLOUDY    15  11  83 E3        30.12R
6HR MIN TEMP:  15; 6HR MAX TEMP:  18;

CAMP DOUGLAS   CLOUDY    12  12  99 CALM      30.11R
6HR MIN TEMP:   7; 6HR MAX TEMP:  15;

$$

WIZ011>013-019>022-031-037>040-048>050-261300-
NORTHEAST WISCONSIN

CITY           SKY/WX    TMP DP  RH WIND       PRES   REMARKS
ANTIGO         CLOUDY    14  13  94 CALM      30.08S
6HR MIN TEMP:  -4; 6HR MAX TEMP:  15;

SHAWANO        CLOUDY    16  13  89 CALM      30.15F
6HR MIN TEMP:   9; 6HR MAX TEMP:  17;

OCONTO         CLOUDY    11  10  95 CALM      30.16S
6HR MIN TEMP:   3; 6HR MAX TEMP:  12;

STURGEON BAY   PTCLDY    18  12  79 CALM      30.15S
6HR MIN TEMP:  18; 6HR MAX TEMP:  21;

GREEN BAY      MOCLDY    14  11  87 W3        30.16R
6HR MIN TEMP:  11; 6HR MAX TEMP:  16;

MANITOWOC      PTCLDY    15  13  91 CALM      30.15S
6HR MIN TEMP:  15; 6HR MAX TEMP:  20;

APPLETON       CLOUDY    18  18 100 CALM      30.13F
CLINTONVILLE   CLOUDY    14  12  92 CALM      30.14F
OSHKOSH        MOCLDY    15  11  83 SE5       30.13F WCI   8
6HR MIN TEMP:   8; 6HR MAX TEMP:  16;

$$

WIZ032>034-041-042-053>061-261300-
SOUTHWEST WISCONSIN

CITY           SKY/WX    TMP DP  RH WIND       PRES   REMARKS
LA CROSSE      CLOUDY    20  15  81 E7        30.09R WCI  11
6HR MIN TEMP:  18; 6HR MAX TEMP:  20;

SPARTA         MOCLDY    13  11  93 CALM      30.11R
6HR MIN TEMP:  13; 6HR MAX TEMP:  19;

VIROQUA        CLOUDY    15  15 100 E7        30.05R WCI   5
6HR MIN TEMP:  14; 6HR MAX TEMP:  16;

BOSCOBEL       PTCLDY    12   8  84 NE3       30.11R
6HR MIN TEMP:   8; 6HR MAX TEMP:  13;

PRAIRIE DU CHI CLOUDY    17  14  85 SE3       30.08S
6HR MIN TEMP:  15; 6HR MAX TEMP:  18;

PLATTEVILLE    MOCLDY    14  12  92 E9        30.08S WCI   2
6HR MIN TEMP:  12; 6HR MAX TEMP:  15;

$$

WIZ056-057-062-063-064-067-068-261300-
SOUTH CENTRAL WISCONSIN

CITY           SKY/WX    TMP DP  RH WIND       PRES   REMARKS
REEDSBURG      MOCLDY     9   7  91 CALM      30.10R
BARABOO/DELLS  MOCLDY    10   7  91 CALM      30.09S
6HR MIN TEMP:   4; 6HR MAX TEMP:  13;

LONE ROCK      PTCLDY    12   5  73 E5        30.12R WCI   4
6HR MIN TEMP:   6; 6HR MAX TEMP:  13;

MINERAL POINT  CLOUDY    18  14  86 E6        30.07S FOG     WCI   9
MADISON        MOCLDY    12   9  87 SE6       30.11F WCI   3
6HR MIN TEMP:   8; 6HR MAX TEMP:  14;

MIDDLETON      MOCLDY    11   8  86 SE3       30.11F
6HR MIN TEMP:   3; 6HR MAX TEMP:  11;

WATERTOWN      PTCLDY    10   9  94 CALM      30.13R
6HR MIN TEMP:   7; 6HR MAX TEMP:  10;

MONROE         CLOUDY    14  12  92 E5        30.09S FOG     WCI   6
JANESVILLE     FOG       12   9  85 E3        30.13S VSB 1/2
$$

WIZ051-052-058>065-066-070>072-261300-
SOUTHEAST WISCONSIN

CITY           SKY/WX    TMP DP  RH WIND       PRES   REMARKS
MILWAUKEE      PTCLDY    16  11  80 S3        30.16R HAZE
6HR MIN TEMP:  14; 6HR MAX TEMP:  21;

WAUKESHA       NOT AVBL
MILWAUKEE/TIMM PTCLDY    14  12  92 CALM      30.16R FOG
RACINE         CLOUDY    16  13  88 W8        30.18R FOG     WCI   5
6HR MIN TEMP:  11; 6HR MAX TEMP:  18;

BURLINGTON     LGT SNOW  12  10  92 CALM      30.15S
6HR MIN TEMP:   5; 6HR MAX TEMP:  13;

KENOSHA        CLOUDY    17  14  88 NW5       30.16S FOG     WCI  10
6HR MIN TEMP:   9; 6HR MAX TEMP:  17;

FOND DU LAC    PTCLDY    11   6  81 CALM      30.14S
6HR MIN TEMP:   7; 6HR MAX TEMP:  15;

SHEBOYGAN      CLOUDY    18  14  84 CALM      30.14F
6HR MIN TEMP:  19; 6HR MAX TEMP:  21;

WEST BEND      CLOUDY    18  14  86 SE5       30.14S WCI  11
JUNEAU         MOCLDY    11   9  92 E3        30.13S FOG
6HR MIN TEMP:  10; 6HR MAX TEMP:  14;

$$

LSZ147-162-261300-
LAKE SUPERIOR

STATION/POSITION TIME  TEMP    WIND        PRES    WAVE
                       AIR SEA DIR/SP/G            HT/PER
                 (UTC) (F)     (DEG/KT/KT) (MB)    (FT/S)
DEVILS ISLAND    1200   26     360/  7/  8 1021.0R
PORT WING        1140   20     150/  1/  3 1020.3R
SAXON HARBOR     1100   19     180/  2/  7 1020.0S
$$

LMZ867-665-643>646-261300-
LAKE MICHIGAN

STATION/POSITION TIME  TEMP    WIND        PRES    WAVE
                       AIR SEA DIR/SP/G            HT/PER


USA.gov is the U.S. government's official web portal to all federal, state and local government web resources and services.